Time,TemperatureF,DewpointF,PressureIn,WindDirection,WindDirectionDegrees,WindSpeedMPH,WindSpeedGustMPH,Humidity,HourlyPrecipIn,Conditions,Clouds,dailyrainin,SoftwareType,DateUTC
2013-05-07 00:33:00,49.0,-99.9,-100.00,North,7,-999.0,-999.0,-999,-99.99,,,-99.99,,2013-05-07 04:33:00,
2013-05-07 00:42:00,49.0,-99.9,-100.00,North,7,-999.0,-999.0,-999,-99.99,,,-99.99,,2013-05-07 04:42:00,
2013-05-07 00:52:00,49.0,-99.9,-100.00,NE,47,-999.0,3.0,-999,-99.99,,,-99.99,,2013-05-07 04:52:00,
2013-05-07 01:32:00,49.0,-99.9,-100.00,NE,47,-999.0,3.0,-999,-99.99,,,-99.99,,2013-05-07 05:32:00,
2013-05-07 01:43:00,49.0,-99.9,-100.00,NE,47,-999.0,3.0,-999,-99.99,,,-99.99,,2013-05-07 05:43:00,
2013-05-07 01:52:00,50.0,-99.9,-100.00,NNE,33,5.0,-999.0,-999,-99.99,,,-99.99,,2013-05-07 05:52:00,
2013-05-07 02:22:00,50.0,-99.9,-100.00,NNE,33,5.0,-999.0,-999,-99.99,,,-99.99,,2013-05-07 06:22:00,
2013-05-07 02:32:00,50.0,-99.9,-100.00,NNE,33,5.0,-999.0,-999,-99.99,,,-99.99,,2013-05-07 06:32:00,
2013-05-07 02:42:00,50.0,-99.9,-100.00,NNE,33,5.0,-999.0,-999,-99.99,,,-99.99,,2013-05-07 06:42:00,
2013-05-07 02:52:00,50.0,-99.9,-100.00,NE,54,5.0,-999.0,-999,-99.99,,,-99.99,,2013-05-07 06:52:00,
2013-05-07 03:32:00,50.0,-99.9,-100.00,NE,54,5.0,-999.0,-999,-99.99,,,-99.99,,2013-05-07 07:32:00,
2013-05-07 03:42:00,50.0,-99.9,-100.00,NE,54,5.0,-999.0,-999,-99.99,,,-99.99,,2013-05-07 07:42:00,
2013-05-07 03:52:00,50.0,-99.9,-100.00,NNE,26,8.0,10.0,-999,-99.99,,,-99.99,,2013-05-07 07:52:00,
2013-05-07 04:22:00,50.0,-99.9,-100.00,NNE,26,8.0,10.0,-999,-99.99,,,-99.99,,2013-05-07 08:22:00,
2013-05-07 04:32:00,50.0,-99.9,-100.00,NNE,26,8.0,10.0,-999,-99.99,,,-99.99,,2013-05-07 08:32:00,
2013-05-07 04:42:00,50.0,-99.9,-100.00,NNE,26,8.0,10.0,-999,-99.99,,,-99.99,,2013-05-07 08:42:00,
2013-05-07 04:52:00,50.0,-99.9,-100.00,East,86,-999.0,6.0,-999,-99.99,,,-99.99,,2013-05-07 08:52:00,
2013-05-07 05:23:00,50.0,-99.9,-100.00,East,86,-999.0,6.0,-999,-99.99,,,-99.99,,2013-05-07 09:23:00,
2013-05-07 05:33:00,50.0,-99.9,-100.00,East,86,-999.0,6.0,-999,-99.99,,,-99.99,,2013-05-07 09:33:00,
2013-05-07 05:43:00,50.0,-99.9,-100.00,East,86,-999.0,6.0,-999,-99.99,,,-99.99,,2013-05-07 09:43:00,
2013-05-07 05:52:00,50.0,-99.9,-100.00,East,84,-999.0,6.0,-999,-99.99,,,-99.99,,2013-05-07 09:52:00,
2013-05-07 06:23:00,50.0,-99.9,-100.00,East,84,-999.0,6.0,-999,-99.99,,,-99.99,,2013-05-07 10:23:00,
2013-05-07 06:33:00,50.0,-99.9,-100.00,East,84,-999.0,6.0,-999,-99.99,,,-99.99,,2013-05-07 10:33:00,
2013-05-07 06:42:00,50.0,-99.9,-100.00,East,84,-999.0,6.0,-999,-99.99,,,-99.99,,2013-05-07 10:42:00,
2013-05-07 06:52:00,50.0,-99.9,-100.00,NNE,20,-999.0,9.0,-999,-99.99,,,-99.99,,2013-05-07 10:52:00,
2013-05-07 07:22:00,50.0,-99.9,-100.00,NNE,20,-999.0,9.0,-999,-99.99,,,-99.99,,2013-05-07 11:22:00,
2013-05-07 07:32:00,50.0,-99.9,-100.00,NNE,20,-999.0,9.0,-999,-99.99,,,-99.99,,2013-05-07 11:32:00,
2013-05-07 07:42:00,50.0,-99.9,-100.00,NNE,20,-999.0,9.0,-999,-99.99,,,-99.99,,2013-05-07 11:42:00,
2013-05-07 07:52:00,51.0,-99.9,-100.00,ENE,57,3.0,8.0,-999,-99.99,,,-99.99,,2013-05-07 11:52:00,
2013-05-07 08:32:00,51.0,-99.9,-100.00,ENE,57,3.0,8.0,-999,-99.99,,,-99.99,,2013-05-07 12:32:00,
2013-05-07 08:42:00,51.0,-99.9,-100.00,ENE,57,3.0,8.0,-999,-99.99,,,-99.99,,2013-05-07 12:42:00,
2013-05-07 08:52:00,51.0,-99.9,-100.00,North,3,11.0,12.0,-999,-99.99,,,-99.99,,2013-05-07 12:52:00,
2013-05-07 09:22:00,51.0,-99.9,-100.00,North,3,11.0,12.0,-999,-99.99,,,-99.99,,2013-05-07 13:22:00,
2013-05-07 09:32:00,51.0,-99.9,-100.00,North,3,11.0,12.0,-999,-99.99,,,-99.99,,2013-05-07 13:32:00,
2013-05-07 09:42:00,51.0,-99.9,-100.00,North,3,11.0,12.0,-999,-99.99,,,-99.99,,2013-05-07 13:42:00,
2013-05-07 09:52:00,51.0,-99.9,-100.00,North,10,11.0,14.0,-999,-99.99,,,-99.99,,2013-05-07 13:52:00,
2013-05-07 10:22:00,51.0,-99.9,-100.00,North,10,11.0,14.0,-999,-99.99,,,-99.99,,2013-05-07 14:22:00,
2013-05-07 10:32:00,51.0,-99.9,-100.00,North,10,11.0,14.0,-999,-99.99,,,-99.99,,2013-05-07 14:32:00,
2013-05-07 10:42:00,51.0,-99.9,-100.00,North,10,11.0,14.0,-999,-99.99,,,-99.99,,2013-05-07 14:42:00,
2013-05-07 10:52:00,51.0,-99.9,-100.00,North,10,12.0,13.0,-999,-99.99,,,-99.99,,2013-05-07 14:52:00,
2013-05-07 11:33:00,51.0,-99.9,-100.00,North,10,12.0,13.0,-999,-99.99,,,-99.99,,2013-05-07 15:33:00,
2013-05-07 11:43:00,51.0,-99.9,-100.00,North,10,12.0,13.0,-999,-99.99,,,-99.99,,2013-05-07 15:43:00,
2013-05-07 11:52:00,53.0,-99.9,-100.00,North,-999,-999.0,16.0,-999,-99.99,,,-99.99,,2013-05-07 15:52:00,
2013-05-07 12:22:00,53.0,-99.9,-100.00,North,-999,-999.0,16.0,-999,-99.99,,,-99.99,,2013-05-07 16:22:00,
2013-05-07 12:32:00,53.0,-99.9,-100.00,North,-999,-999.0,16.0,-999,-99.99,,,-99.99,,2013-05-07 16:32:00,
2013-05-07 12:42:00,53.0,-99.9,-100.00,North,-999,-999.0,16.0,-999,-99.99,,,-99.99,,2013-05-07 16:42:00,
2013-05-07 12:52:00,54.0,-99.9,-100.00,ENE,64,5.0,15.0,-999,-99.99,,,-99.99,,2013-05-07 16:52:00,
2013-05-07 13:22:00,54.0,-99.9,-100.00,ENE,64,5.0,15.0,-999,-99.99,,,-99.99,,2013-05-07 17:22:00,
2013-05-07 13:32:00,54.0,-99.9,-100.00,ENE,64,5.0,15.0,-999,-99.99,,,-99.99,,2013-05-07 17:32:00,
2013-05-07 13:41:00,54.0,-99.9,-100.00,ENE,64,5.0,15.0,-999,-99.99,,,-99.99,,2013-05-07 17:41:00,
2013-05-07 13:52:00,54.0,-99.9,-100.00,NE,46,12.0,16.0,-999,-99.99,,,-99.99,,2013-05-07 17:52:00,
2013-05-07 14:21:00,54.0,-99.9,-100.00,NE,46,12.0,16.0,-999,-99.99,,,-99.99,,2013-05-07 18:21:00,
2013-05-07 14:32:00,54.0,-99.9,-100.00,NE,46,12.0,16.0,-999,-99.99,,,-99.99,,2013-05-07 18:32:00,
2013-05-07 14:42:00,54.0,-99.9,-100.00,NE,46,12.0,16.0,-999,-99.99,,,-99.99,,2013-05-07 18:42:00,
2013-05-07 14:52:00,54.0,-99.9,-100.00,ENE,66,8.0,15.0,-999,-99.99,,,-99.99,,2013-05-07 18:52:00,
2013-05-07 15:22:00,54.0,-99.9,-100.00,ENE,66,8.0,15.0,-999,-99.99,,,-99.99,,2013-05-07 19:22:00,
2013-05-07 15:32:00,54.0,-99.9,-100.00,ENE,66,8.0,15.0,-999,-99.99,,,-99.99,,2013-05-07 19:32:00,
2013-05-07 15:42:00,54.0,-99.9,-100.00,ENE,66,8.0,15.0,-999,-99.99,,,-99.99,,2013-05-07 19:42:00,
2013-05-07 15:52:00,53.0,-99.9,-100.00,NE,40,9.0,12.0,-999,-99.99,,,-99.99,,2013-05-07 19:52:00,
2013-05-07 16:22:00,53.0,-99.9,-100.00,NE,40,9.0,12.0,-999,-99.99,,,-99.99,,2013-05-07 20:22:00,
2013-05-07 16:32:00,53.0,-99.9,-100.00,NE,40,9.0,12.0,-999,-99.99,,,-99.99,,2013-05-07 20:32:00,
2013-05-07 16:42:00,53.0,-99.9,-100.00,NE,40,9.0,12.0,-999,-99.99,,,-99.99,,2013-05-07 20:42:00,
2013-05-07 16:52:00,54.0,-99.9,-100.00,ENE,64,7.0,12.0,-999,-99.99,,,-99.99,,2013-05-07 20:52:00,
2013-05-07 17:33:00,54.0,-99.9,-100.00,ENE,64,7.0,12.0,-999,-99.99,,,-99.99,,2013-05-07 21:33:00,
2013-05-07 17:43:00,54.0,-99.9,-100.00,ENE,64,7.0,12.0,-999,-99.99,,,-99.99,,2013-05-07 21:43:00,
2013-05-07 17:52:00,55.0,-99.9,-100.00,NNE,23,8.0,12.0,-999,-99.99,,,-99.99,,2013-05-07 21:52:00,
2013-05-07 18:23:00,55.0,-99.9,-100.00,NNE,23,8.0,12.0,-999,-99.99,,,-99.99,,2013-05-07 22:23:00,
2013-05-07 18:33:00,55.0,-99.9,-100.00,NNE,23,8.0,12.0,-999,-99.99,,,-99.99,,2013-05-07 22:33:00,
2013-05-07 18:42:00,55.0,-99.9,-100.00,NNE,23,8.0,12.0,-999,-99.99,,,-99.99,,2013-05-07 22:42:00,
2013-05-07 18:52:00,55.0,-99.9,-100.00,NE,49,5.0,10.0,-999,-99.99,,,-99.99,,2013-05-07 22:52:00,
2013-05-07 19:32:00,55.0,-99.9,-100.00,NE,49,5.0,10.0,-999,-99.99,,,-99.99,,2013-05-07 23:32:00,
2013-05-07 19:42:00,55.0,-99.9,-100.00,NE,49,5.0,10.0,-999,-99.99,,,-99.99,,2013-05-07 23:42:00,
2013-05-07 19:52:00,56.0,-99.9,-100.00,East,83,3.0,7.0,-999,-99.99,,,-99.99,,2013-05-07 23:52:00,
2013-05-07 20:32:00,56.0,-99.9,-100.00,East,83,3.0,7.0,-999,-99.99,,,-99.99,,2013-05-08 00:32:00,
2013-05-07 20:42:00,56.0,-99.9,-100.00,East,83,3.0,7.0,-999,-99.99,,,-99.99,,2013-05-08 00:42:00,
2013-05-07 20:52:00,56.0,-99.9,-100.00,NE,52,-999.0,9.0,-999,-99.99,,,-99.99,,2013-05-08 00:52:00,
2013-05-07 21:32:00,56.0,-99.9,-100.00,NE,52,-999.0,9.0,-999,-99.99,,,-99.99,,2013-05-08 01:32:00,
2013-05-07 21:42:00,56.0,-99.9,-100.00,NE,52,-999.0,9.0,-999,-99.99,,,-99.99,,2013-05-08 01:42:00,
2013-05-07 21:52:00,56.0,-99.9,-100.00,NNE,26,6.0,9.0,-999,-99.99,,,-99.99,,2013-05-08 01:52:00,
2013-05-07 22:22:00,56.0,-99.9,-100.00,NNE,26,6.0,9.0,-999,-99.99,,,-99.99,,2013-05-08 02:22:00,
2013-05-07 22:32:00,56.0,-99.9,-100.00,NNE,26,6.0,9.0,-999,-99.99,,,-99.99,,2013-05-08 02:32:00,
2013-05-07 22:42:00,56.0,-99.9,-100.00,NNE,26,6.0,9.0,-999,-99.99,,,-99.99,,2013-05-08 02:42:00,
2013-05-07 22:52:00,56.0,-99.9,-100.00,NNE,14,3.0,8.0,-999,-99.99,,,-99.99,,2013-05-08 02:52:00,
2013-05-07 23:22:00,56.0,-99.9,-100.00,NNE,14,3.0,8.0,-999,-99.99,,,-99.99,,2013-05-08 03:22:00,
2013-05-07 23:33:00,56.0,-99.9,-100.00,NNE,14,3.0,8.0,-999,-99.99,,,-99.99,,2013-05-08 03:33:00,
2013-05-07 23:43:00,56.0,-99.9,-100.00,NNE,14,3.0,8.0,-999,-99.99,,,-99.99,,2013-05-08 03:43:00,
2013-05-07 23:52:00,56.0,-99.9,-100.00,NE,39,-999.0,8.0,-999,-99.99,,,-99.99,,2013-05-08 03:52:00,